Pescara, Italy

4:35 AM CEST on October 17, 2017 (GMT +0200)
Pescara

Weather History for LIBP - March, 2013

Change the Weather History Date:

Thursday, March 21, 2013

  Actual Average Record
Temperature  
Mean Temperature 49 °F -  
Max Temperature 57 °F 62 °F 77 °F (2001)
Min Temperature 39 °F 44 °F 32 °F (2003)
Degree Days  
Heating Degree Days 16    
Moisture  
Dew Point 39 °F    
Average Humidity 64    
Maximum Humidity 82    
Minimum Humidity 47    
Precipitation  
Precipitation 0.00 in 0.08 in - ()
Sea Level Pressure  
Sea Level Pressure 29.81 in    
Wind  
Wind Speed 5 mph ()    
Max Wind Speed 21 mph    
Max Gust Speed 38 mph    
Visibility 5.1 miles    
Events Rain    
Averages and records for this station are not official NWS values.
T = Trace of Precipitation, MM = Missing Value Source: Averaged Metar Reports

Daily Weather History Graph

Daily Weather History Graph

Search for Another Location

Airport or City:

Trip Planner

Search our weather history database for the weather conditions in past years. The results will help you decide how hot, cold, wet, or windy it might be!

Date:

Astronomy

Mar. 21, 2013 Rise Set
Actual Time 6:04 AM CET 6:16 PM CET
Civil Twilight 5:36 AM CET 6:44 PM CET
Nautical Twilight 5:03 AM CET 7:17 PM CET
Astronomical Twilight 4:30 AM CET 7:51 PM CET
Moon 12:24 PM CET (3/21) 2:21 AM CET (3/21)
Length of Visible Light 13h 07m
Length of Day
12h 11m
Waxing Gibbous, 66% of the Moon is Illuminated
Mar 21
Waxing Gibbous
Mar 27
Full
Apr 3
Last Quarter
Apr 10
New
Apr 18
First Quarter

Hourly Weather History & Observations

Time (CET) Temp. Windchill Dew Point Humidity Pressure Visibility Wind Dir Wind Speed Gust Speed Precip Events Conditions
12:50 AM 48.2 °F - 42.8 °F 82% 29.68 in 4.3 mi Variable 2.3 mph - N/A   Scattered Clouds
1:13 AM 50.0 °F - 44.6 °F 82% 29.65 in 3.7 mi Variable 1.2 mph - N/A Rain Rain
2:50 AM 48.2 °F - 42.8 °F 82% 29.68 in 2.5 mi Variable 2.3 mph - N/A Rain Rain
3:50 AM 50.0 °F - 44.6 °F 82% 29.68 in 2.5 mi Variable 2.3 mph - N/A Rain Rain
4:00 AM 50.0 °F - 44.6 °F 82% 29.68 in 2.5 mi Variable 2.3 mph - N/A Rain Rain
4:50 AM 50.0 °F - 42.8 °F 76% 29.71 in 3.1 mi Variable 3.5 mph - N/A Rain Rain
5:50 AM 50.0 °F - 42.8 °F 76% 29.74 in 4.3 mi Variable 3.5 mph - N/A Rain Light Rain
6:50 AM 50.0 °F - 41.0 °F 71% 29.74 in 6.2 mi Variable 3.5 mph - N/A Rain Light Rain
7:50 AM 50.0 °F - 41.0 °F 71% 29.77 in 6.2 mi WNW 5.8 mph - N/A   Scattered Clouds
9:50 AM 57.2 °F - 42.8 °F 59% 29.77 in 6.2 mi Variable 3.5 mph - N/A   Scattered Clouds
10:17 AM 55.4 °F - 37.4 °F 51% 29.77 in 6.2 mi NNW 20.7 mph 32.2 mph N/A   Mostly Cloudy
10:50 AM 53.6 °F - 37.4 °F 54% 29.77 in 6.2 mi NNW 18.4 mph 29.9 mph N/A   Mostly Cloudy
11:50 AM 53.6 °F - 37.4 °F 54% 29.83 in 6.2 mi NNW 13.8 mph 25.3 mph N/A   Mostly Cloudy
11:59 AM 53.6 °F - 35.6 °F 51% 29.86 in 6.2 mi NNW 19.6 mph 38.0 mph N/A   Mostly Cloudy
12:50 PM 53.6 °F - 39.2 °F 58% 29.86 in 6.2 mi NNW 16.1 mph 29.9 mph N/A   Mostly Cloudy
1:50 PM 55.4 °F - 37.4 °F 51% 29.86 in 6.2 mi NW 15.0 mph 26.5 mph N/A   Scattered Clouds
2:50 PM 57.2 °F - 37.4 °F 48% 29.86 in 6.2 mi NNW 9.2 mph - N/A   Scattered Clouds
3:50 PM 57.2 °F - 39.2 °F 51% 29.89 in 6.2 mi NNW 9.2 mph - N/A   Scattered Clouds
4:50 PM 57.2 °F - 37.4 °F 48% 29.89 in 6.2 mi North 6.9 mph - N/A   Scattered Clouds
5:50 PM 55.4 °F - 35.6 °F 47% 29.92 in - North 5.8 mph - N/A   Clear
6:50 PM 51.8 °F - 33.8 °F 50% 29.92 in - Variable 3.5 mph - N/A   Clear
7:50 PM 48.2 °F - 35.6 °F 62% 29.92 in - Variable 3.5 mph - N/A   Clear
8:50 PM 46.4 °F - 33.8 °F 62% 29.92 in - Variable 2.3 mph - N/A   Clear
9:50 PM 42.8 °F 39.3 °F 33.8 °F 70% 29.95 in - SW 5.8 mph - N/A   Clear
10:50 PM 41.0 °F 37.1 °F 33.8 °F 76% 29.92 in - SSW 5.8 mph - N/A   Clear
11:50 PM 39.2 °F 37.0 °F 32.0 °F 75% 29.92 in - Variable 3.5 mph - N/A   Clear